HEAD-5 (45796 NORAD) Tracking and Keplerian Element Data

This shows tracking and keplerian element data for the satellite.

Feedback or suggestion? Click here.




ElementValue
Catalog45796
NameHEAD-5
Epoch Orbit345
Epoch Day192.09475633
Epoch Year2020
RAAN313.121
Inclination97.3244
Eccentricity0.001399
Argument of Perigee189.6503
Mean Anonmoly342.2113
Mean Motion15.24207133
Decay Rate7.22E-06
L11 45796U 20039C 20192.09475633 .00000722 00000-0 32463-4 0 9999
L22 45796 97.3244 313.1210 0013990 189.6503 342.2113 15.24207133 3453

Live tracking and technical data element details for HEAD-5 (NORAD 45796). HEAD-5 can be tracked NOW for your location showing map with azimuth and elevation plus other details from your city location.

Track the satellite on the map from your city or location and see movement details for azimuth, elevation, latitude, longitude, range, height, and movement on the map or in text.







IsCatalogInMostPopularTable: catalog: 45796, numindb: 5
Update: records affected: 1



GetName: 45796 HEAD-5

Hit Count: updated at: Fri, 10 Jul 2020 16:39:39 GMT